Sanford, NC

6:32 PM EDT on June 24, 2017 (GMT -0400)
Raleigh Executive Jetport

Weather History for KTTA - May, 2014

Change the Weather History Date:

Thursday, May 1, 2014

  Actual Average (KHRJ) Record (KHRJ)
Temperature  
Mean Temperature 72 °F -  
Max Temperature 78 °F 77 °F 93 °F (2007)
Min Temperature 65 °F 51 °F 38 °F (1988)
Cooling Degree Days 6    
Growing Degree Days 22 (Base 50)    
Moisture  
Dew Point 63 °F    
Average Humidity 76    
Maximum Humidity 90    
Minimum Humidity 49    
Precipitation  
Precipitation 0.00 in - - ()
Sea Level Pressure  
Sea Level Pressure 29.87 in    
Wind  
Wind Speed 8 mph (SSW)    
Max Wind Speed 15 mph    
Max Gust Speed 23 mph    
Visibility 10 miles    
Events Rain    
Averages and records for this station are not official NWS values.
T = Trace of Precipitation, MM = Missing Value Source: NWS Daily Summary

Daily Weather History Graph

Daily Weather History Graph

Search for Another Location

Airport or City:

Trip Planner

Search our weather history database for the weather conditions in past years. The results will help you decide how hot, cold, wet, or windy it might be!

Date:

Astronomy

May. 01, 2014 Rise Set
Actual Time 6:24 AM EDT 8:02 PM EDT
Civil Twilight 5:57 AM EDT 8:30 PM EDT
Nautical Twilight 5:24 AM EDT 9:03 PM EDT
Astronomical Twilight 4:49 AM EDT 9:38 PM EDT
Moon 8:12 AM EDT (5/1) 10:32 PM EDT (5/1)
Length of Visible Light 14h 32m
Length of Day
13h 38m
Waxing Crescent, 6% of the Moon is Illuminated
May 1
Waxing Crescent
May 6
First Quarter
May 14
Full
May 21
Last Quarter
May 28
New

Hourly Weather History & Observations

Time (EDT) Temp. Dew Point Humidity Pressure Visibility Wind Dir Wind Speed Gust Speed Precip Events Conditions
12:15 AM 71.2 °F 68.2 °F 90% 29.91 in 10.0 mi South 9.2 mph 18.4 mph N/A   Unknown
12:35 AM 71.2 °F 68.0 °F 89% 29.91 in 10.0 mi South 11.5 mph - N/A   Unknown
12:55 AM 71.1 °F 67.6 °F 89% 29.91 in 10.0 mi South 8.1 mph - N/A   Unknown
1:15 AM 70.9 °F 67.1 °F 88% 29.91 in 10.0 mi South 6.9 mph - N/A   Unknown
1:35 AM 70.7 °F 66.4 °F 86% 29.90 in 10.0 mi South 6.9 mph - N/A   Unknown
1:55 AM 70.2 °F 66.2 °F 87% 29.90 in 10.0 mi South 5.8 mph - N/A   Unknown
2:15 AM 69.8 °F 66.2 °F 88% 29.90 in 10.0 mi South 5.8 mph - N/A   Unknown
2:35 AM 69.8 °F 66.0 °F 88% 29.89 in 10.0 mi South 5.8 mph - N/A   Unknown
2:55 AM 69.8 °F 66.2 °F 88% 29.88 in 10.0 mi South 5.8 mph - N/A   Unknown
3:15 AM 69.8 °F 65.8 °F 87% 29.88 in 10.0 mi SSW 6.9 mph - N/A   Unknown
3:35 AM 69.1 °F 65.5 °F 88% 29.88 in 10.0 mi South 5.8 mph - N/A   Unknown
3:55 AM 68.9 °F 65.5 °F 89% 29.89 in 10.0 mi South 4.6 mph - N/A   Unknown
4:15 AM 68.9 °F 65.3 °F 88% 29.90 in 10.0 mi South 4.6 mph - N/A   Unknown
4:35 AM 68.2 °F 64.8 °F 89% 29.90 in 10.0 mi South 4.6 mph - N/A   Unknown
4:55 AM 67.6 °F 64.6 °F 90% 29.90 in 10.0 mi South 4.6 mph - N/A   Unknown
5:15 AM 68.4 °F 64.6 °F 88% 29.90 in 10.0 mi South 3.5 mph - N/A   Unknown
5:35 AM 68.0 °F 64.4 °F 88% 29.90 in 10.0 mi South 4.6 mph - N/A   Unknown
5:55 AM 68.0 °F 64.4 °F 88% 29.90 in 10.0 mi SSW 3.5 mph - N/A   Unknown
6:15 AM 68.5 °F 64.2 °F 86% 29.91 in 10.0 mi SSW 3.5 mph - N/A   Unknown
6:35 AM 68.9 °F 63.9 °F 84% 29.90 in 10.0 mi SW 5.8 mph - N/A   Unknown
6:55 AM 69.1 °F 63.9 °F 83% 29.91 in 10.0 mi SW 6.9 mph - N/A Rain Heavy Rain
7:15 AM 68.4 °F 63.9 °F 85% 29.91 in 10.0 mi South 6.9 mph - N/A   Unknown
7:35 AM 68.2 °F 64.0 °F 87% 29.91 in 10.0 mi SSW 9.2 mph - N/A   Unknown
8:15 AM 68.7 °F 64.0 °F 85% 29.91 in 10.0 mi SSW 6.9 mph - N/A   Unknown
8:35 AM 68.4 °F 63.9 °F 85% 29.91 in 10.0 mi SSW 8.1 mph - N/A   Unknown
8:55 AM 68.7 °F 64.0 °F 85% 29.91 in 10.0 mi SW 6.9 mph - N/A   Unknown
9:15 AM 68.9 °F 63.9 °F 84% 29.91 in 10.0 mi SSW 9.2 mph - N/A   Unknown
9:35 AM 68.9 °F 64.0 °F 84% 29.91 in 10.0 mi SSW 8.1 mph - N/A   Unknown
9:55 AM 69.3 °F 64.4 °F 84% 29.91 in 10.0 mi SSW 6.9 mph - N/A   Unknown
10:15 AM 71.8 °F 64.6 °F 78% 29.90 in 10.0 mi SSW 11.5 mph 16.1 mph N/A   Unknown
10:55 AM 74.1 °F 64.2 °F 71% 29.89 in 10.0 mi SSW 10.4 mph - N/A   Unknown
11:15 AM 74.3 °F 61.7 °F 65% 29.89 in 10.0 mi SW 9.2 mph - N/A   Unknown
11:35 AM 75.2 °F 61.2 °F 62% 29.88 in 10.0 mi SW 9.2 mph - N/A   Unknown
11:55 AM 76.8 °F 59.0 °F 54% 29.88 in 10.0 mi SW 10.4 mph - N/A   Unknown
12:15 PM 77.0 °F 59.0 °F 54% 29.88 in 10.0 mi SW 10.4 mph 16.1 mph N/A   Unknown
12:35 PM 77.0 °F 59.4 °F 54% 29.87 in 10.0 mi WSW 8.1 mph - N/A   Unknown
1:15 PM 77.9 °F 57.9 °F 50% 29.87 in 10.0 mi SW 9.2 mph - N/A   Unknown
1:35 PM 78.1 °F 57.2 °F 49% 29.86 in 10.0 mi SSW 8.1 mph - N/A   Unknown
1:55 PM 77.7 °F 57.7 °F 50% 29.86 in 10.0 mi SSW 10.4 mph - N/A   Unknown
2:15 PM 78.3 °F 58.3 °F 50% 29.85 in 10.0 mi SSW 13.8 mph 19.6 mph N/A   Unknown
2:35 PM 77.2 °F 57.4 °F 50% 29.86 in 10.0 mi SW 10.4 mph 23.0 mph N/A   Unknown
2:55 PM 76.6 °F 59.4 °F 55% 29.86 in 10.0 mi SW 9.2 mph - N/A   Unknown
3:15 PM 76.5 °F 58.8 °F 54% 29.85 in 10.0 mi SSW 10.4 mph - N/A   Unknown
3:35 PM 77.9 °F 58.8 °F 52% 29.84 in 10.0 mi SSW 15.0 mph 20.7 mph N/A   Unknown
4:15 PM 77.9 °F 61.2 °F 56% 29.83 in 10.0 mi SSW 10.4 mph 16.1 mph N/A   Unknown
4:35 PM 76.5 °F 61.2 °F 59% 29.83 in 10.0 mi South 13.8 mph 19.6 mph N/A   Unknown
4:55 PM 74.3 °F 61.7 °F 65% 29.83 in 10.0 mi South 10.4 mph - N/A   Unknown
5:15 PM 74.5 °F 62.6 °F 66% 29.83 in 10.0 mi South 6.9 mph - N/A   Unknown
5:35 PM 74.8 °F 62.6 °F 66% 29.82 in 10.0 mi South 8.1 mph - N/A   Unknown
5:55 PM 74.5 °F 62.1 °F 65% 29.81 in 10.0 mi South 11.5 mph 17.3 mph N/A   Unknown
6:15 PM 74.5 °F 61.2 °F 63% 29.81 in 10.0 mi SSW 11.5 mph 18.4 mph N/A   Unknown
6:35 PM 73.4 °F 61.2 °F 65% 29.80 in 10.0 mi South 11.5 mph 19.6 mph N/A   Unknown
7:15 PM 71.8 °F 62.4 °F 72% 29.80 in 10.0 mi South 9.2 mph - N/A   Unknown
7:35 PM 71.1 °F 63.0 °F 75% 29.79 in 10.0 mi South 6.9 mph - N/A   Unknown
7:55 PM 70.7 °F 63.0 °F 76% 29.80 in 10.0 mi South 8.1 mph - N/A   Unknown
8:15 PM 69.8 °F 63.5 °F 80% 29.80 in 10.0 mi South 6.9 mph - N/A   Unknown
8:35 PM 69.3 °F 63.1 °F 81% 29.80 in 10.0 mi South 5.8 mph - N/A   Unknown
8:55 PM 68.7 °F 63.1 °F 82% 29.80 in 10.0 mi South 4.6 mph - N/A   Unknown
9:15 PM 68.0 °F 63.0 °F 84% 29.81 in 10.0 mi SSW 4.6 mph - N/A   Unknown
9:35 PM 67.6 °F 62.8 °F 84% 29.81 in 10.0 mi South 5.8 mph - N/A   Unknown
9:55 PM 67.1 °F 62.6 °F 85% 29.81 in 10.0 mi SSW 5.8 mph - N/A   Unknown
10:15 PM 67.1 °F 62.8 °F 86% 29.82 in 10.0 mi SSW 5.8 mph - N/A   Unknown
10:35 PM 66.6 °F 62.6 °F 87% 29.82 in 10.0 mi SSW 5.8 mph - N/A   Unknown
10:55 PM 66.2 °F 61.7 °F 85% 29.83 in 10.0 mi SSW 6.9 mph - N/A   Unknown
11:15 PM 65.8 °F 61.3 °F 85% 29.84 in 10.0 mi SSW 8.1 mph - N/A   Unknown
11:35 PM 65.5 °F 61.0 °F 85% 29.84 in 10.0 mi SSW 5.8 mph - N/A   Unknown
11:55 PM 65.3 °F 60.8 °F 85% 29.85 in 10.0 mi SSW 9.2 mph - N/A   Unknown